Time,TemperatureF,DewpointF,PressureIn,WindDirection,WindDirectionDegrees,WindSpeedMPH,WindSpeedGustMPH,Humidity,HourlyPrecipIn,Conditions,Clouds,dailyrainin,SoftwareType,DateUTC
2013-03-15 00:04:00,55.0,49.3,30.00,South,180,0.0,0.0,81,0.00,,---,0.00,VWS V14.01,2013-03-15 07:04:00,
2013-03-15 00:09:00,54.5,47.5,30.06,SSE,158,0.0,0.0,77,0.00,,---,0.00,VWS V14.01,2013-03-15 07:09:00,
2013-03-15 00:14:00,54.5,47.1,30.06,SSE,158,0.0,0.0,76,0.00,,---,0.00,VWS V14.01,2013-03-15 07:14:00,
2013-03-15 00:19:00,54.5,48.1,30.06,ESE,112,0.0,0.0,79,0.00,,---,0.00,VWS V14.01,2013-03-15 07:19:00,
2013-03-15 00:24:00,54.1,47.1,30.03,ESE,112,0.0,0.0,77,0.00,,---,0.00,VWS V14.01,2013-03-15 07:24:00,
2013-03-15 00:29:00,53.8,46.8,30.03,ESE,112,0.0,0.0,77,0.00,,---,0.00,VWS V14.01,2013-03-15 07:29:00,
2013-03-15 00:35:00,53.4,46.7,30.03,North,0,0.0,0.0,78,0.00,,---,0.00,VWS V14.01,2013-03-15 07:35:00,
2013-03-15 00:40:00,53.6,46.9,30.00,North,0,0.0,0.0,78,0.00,,---,0.00,VWS V14.01,2013-03-15 07:40:00,
2013-03-15 00:45:00,53.1,46.4,30.00,North,0,0.0,0.0,78,0.00,,---,0.00,VWS V14.01,2013-03-15 07:45:00,
2013-03-15 00:50:00,52.9,46.2,30.00,North,0,0.0,0.0,78,0.00,,---,0.00,VWS V14.01,2013-03-15 07:50:00,
2013-03-15 00:55:00,52.9,46.5,30.03,North,0,0.0,0.0,79,0.00,,---,0.00,VWS V14.01,2013-03-15 07:55:00,
2013-03-15 01:00:00,52.5,46.5,30.03,North,0,0.0,0.0,80,0.00,,---,0.00,VWS V14.01,2013-03-15 08:00:00,
2013-03-15 01:05:00,52.3,46.7,30.03,North,0,0.0,0.0,81,0.00,,---,0.00,VWS V14.01,2013-03-15 08:05:00,
2013-03-15 01:10:00,52.0,46.0,30.03,ESE,112,0.0,0.0,80,0.00,,---,0.00,VWS V14.01,2013-03-15 08:10:00,
2013-03-15 01:15:00,52.0,46.0,30.03,ESE,112,0.0,0.0,80,0.00,,---,0.00,VWS V14.01,2013-03-15 08:15:00,
2013-03-15 01:20:00,51.8,47.1,30.03,East,90,0.0,0.0,84,0.00,,---,0.00,VWS V14.01,2013-03-15 08:20:00,
2013-03-15 01:25:00,51.6,46.3,30.03,East,90,0.0,0.0,82,0.00,,---,0.00,VWS V14.01,2013-03-15 08:25:00,
2013-03-15 01:30:00,51.4,46.5,30.03,East,90,0.0,0.0,83,0.00,,---,0.00,VWS V14.01,2013-03-15 08:30:00,
2013-03-15 01:35:00,51.3,46.6,30.03,East,90,0.0,0.0,84,0.00,,---,0.00,VWS V14.01,2013-03-15 08:35:00,
2013-03-15 01:40:00,51.1,46.4,30.03,SE,135,0.0,0.0,84,0.00,,---,0.00,VWS V14.01,2013-03-15 08:40:00,
2013-03-15 01:45:00,50.9,46.2,30.03,SE,135,0.0,0.0,84,0.00,,---,0.00,VWS V14.01,2013-03-15 08:45:00,
2013-03-15 01:50:00,50.9,46.6,30.03,NE,45,0.0,0.0,85,0.00,,---,0.00,VWS V14.01,2013-03-15 08:50:00,
2013-03-15 01:55:00,50.7,46.4,30.00,ESE,112,0.0,0.0,85,0.00,,---,0.00,VWS V14.01,2013-03-15 08:55:00,
2013-03-15 02:00:00,50.9,46.6,30.00,ESE,112,0.0,0.0,85,0.00,,---,0.00,VWS V14.01,2013-03-15 09:00:00,
2013-03-15 02:05:00,50.9,46.9,30.00,ESE,112,0.0,0.0,86,0.00,,---,0.00,VWS V14.01,2013-03-15 09:05:00,
2013-03-15 02:10:00,50.9,46.9,30.03,ESE,112,0.0,0.0,86,0.00,,---,0.00,VWS V14.01,2013-03-15 09:10:00,
2013-03-15 02:15:00,50.5,46.5,30.03,ESE,112,0.0,0.0,86,0.00,,---,0.00,VWS V14.01,2013-03-15 09:15:00,
2013-03-15 02:20:00,50.2,46.2,30.03,ESE,112,0.0,0.0,86,0.00,,---,0.00,VWS V14.01,2013-03-15 09:20:00,
2013-03-15 02:25:00,50.0,46.3,30.03,ESE,112,0.0,0.0,87,0.00,,---,0.00,VWS V14.01,2013-03-15 09:25:00,
2013-03-15 02:30:00,49.8,46.4,30.03,ESE,112,0.0,0.0,88,0.00,,---,0.00,VWS V14.01,2013-03-15 09:30:00,
2013-03-15 02:36:00,49.8,46.4,30.03,ESE,112,0.0,0.0,88,0.00,,---,0.00,VWS V14.01,2013-03-15 09:36:00,
2013-03-15 02:41:00,49.8,46.4,30.03,ESE,112,0.0,0.0,88,0.00,,---,0.00,VWS V14.01,2013-03-15 09:41:00,
2013-03-15 02:46:00,49.6,46.2,30.03,ESE,112,0.0,0.0,88,0.00,,---,0.00,VWS V14.01,2013-03-15 09:46:00,
2013-03-15 02:51:00,49.6,46.5,30.03,ENE,68,0.0,0.0,89,0.00,,---,0.00,VWS V14.01,2013-03-15 09:51:00,
2013-03-15 02:56:00,49.6,46.5,30.03,ENE,68,0.0,0.0,89,0.00,,---,0.00,VWS V14.01,2013-03-15 09:56:00,
2013-03-15 03:01:00,49.3,45.9,30.03,ENE,68,0.0,0.0,88,0.00,,---,0.00,VWS V14.01,2013-03-15 10:01:00,
2013-03-15 03:06:00,49.1,45.7,30.03,ENE,68,0.0,0.0,88,0.00,,---,0.00,VWS V14.01,2013-03-15 10:06:00,
2013-03-15 03:11:00,49.1,46.6,30.00,ENE,68,0.0,0.0,91,0.00,,---,0.00,VWS V14.01,2013-03-15 10:11:00,
2013-03-15 03:16:00,48.9,46.1,30.00,ENE,68,0.0,0.0,90,0.00,,---,0.00,VWS V14.01,2013-03-15 10:16:00,
2013-03-15 03:21:00,48.9,46.1,30.00,ENE,68,0.0,0.0,90,0.00,,---,0.00,VWS V14.01,2013-03-15 10:21:00,
2013-03-15 03:27:00,48.7,45.9,30.00,ENE,68,0.0,0.0,90,0.00,,---,0.00,VWS V14.01,2013-03-15 10:27:00,
2013-03-15 03:32:00,48.6,45.8,30.00,East,90,0.0,0.0,90,0.00,,---,0.00,VWS V14.01,2013-03-15 10:32:00,
2013-03-15 03:37:00,48.7,45.9,30.00,East,90,0.0,0.0,90,0.00,,---,0.00,VWS V14.01,2013-03-15 10:37:00,
2013-03-15 03:42:00,48.9,46.7,30.03,East,90,0.0,0.0,92,0.00,,---,0.00,VWS V14.01,2013-03-15 10:42:00,
2013-03-15 03:47:00,48.7,46.5,30.03,East,90,0.0,0.0,92,0.00,,---,0.00,VWS V14.01,2013-03-15 10:47:00,
2013-03-15 03:52:00,48.7,46.5,30.03,East,90,0.0,0.0,92,0.00,,---,0.00,VWS V14.01,2013-03-15 10:52:00,
2013-03-15 03:57:00,48.7,46.5,30.00,East,90,0.0,0.0,92,0.00,,---,0.00,VWS V14.01,2013-03-15 10:57:00,
2013-03-15 04:02:00,48.6,46.3,30.00,East,90,0.0,0.0,92,0.00,,---,0.00,VWS V14.01,2013-03-15 11:02:00,
2013-03-15 04:07:00,48.4,46.2,30.00,East,90,0.0,0.0,92,0.00,,---,0.00,VWS V14.01,2013-03-15 11:07:00,
2013-03-15 04:12:00,48.4,46.2,30.03,East,90,0.0,0.0,92,0.00,,---,0.00,VWS V14.01,2013-03-15 11:12:00,
2013-03-15 04:17:00,48.4,46.5,30.03,East,90,0.0,0.0,93,0.00,,---,0.00,VWS V14.01,2013-03-15 11:17:00,
2013-03-15 04:23:00,48.4,46.5,30.03,East,90,0.0,0.0,93,0.00,,---,0.00,VWS V14.01,2013-03-15 11:23:00,
2013-03-15 04:27:00,48.4,46.5,30.06,East,90,0.0,0.0,93,0.00,,---,0.00,VWS V14.01,2013-03-15 11:27:00,
2013-03-15 04:33:00,48.2,46.3,30.06,East,90,0.0,0.0,93,0.00,,---,0.00,VWS V14.01,2013-03-15 11:33:00,
2013-03-15 04:38:00,48.2,46.3,30.06,East,90,0.0,0.0,93,0.00,,---,0.00,VWS V14.01,2013-03-15 11:38:00,
2013-03-15 04:43:00,48.2,46.6,30.03,East,90,0.0,0.0,94,0.00,,---,0.00,VWS V14.01,2013-03-15 11:43:00,
2013-03-15 04:48:00,48.2,46.6,30.03,East,90,0.0,0.0,94,0.00,,---,0.00,VWS V14.01,2013-03-15 11:48:00,
2013-03-15 04:53:00,47.8,46.5,30.03,East,90,0.0,0.0,95,0.00,,---,0.00,VWS V14.01,2013-03-15 11:53:00,
2013-03-15 04:58:00,47.8,46.5,30.03,East,90,0.0,0.0,95,0.00,,---,0.00,VWS V14.01,2013-03-15 11:58:00,
2013-03-15 05:03:00,47.8,46.2,30.03,East,90,0.0,0.0,94,0.00,,---,0.00,VWS V14.01,2013-03-15 12:03:00,
2013-03-15 05:08:00,47.7,46.0,30.03,East,90,0.0,0.0,94,0.00,,---,0.00,VWS V14.01,2013-03-15 12:08:00,
2013-03-15 05:13:00,47.8,46.2,30.03,East,90,0.0,0.0,94,0.00,,---,0.00,VWS V14.01,2013-03-15 12:13:00,
2013-03-15 05:18:00,48.0,46.4,30.03,East,90,0.0,0.0,94,0.00,,---,0.00,VWS V14.01,2013-03-15 12:18:00,
2013-03-15 05:23:00,48.4,47.3,30.03,East,90,0.0,0.0,96,0.00,,---,0.00,VWS V14.01,2013-03-15 12:23:00,
2013-03-15 05:28:00,48.2,47.4,30.03,East,90,0.0,0.0,97,0.00,,---,0.00,VWS V14.01,2013-03-15 12:28:00,
2013-03-15 05:33:00,48.0,47.2,30.03,East,90,0.0,0.0,97,0.00,,---,0.00,VWS V14.01,2013-03-15 12:33:00,
2013-03-15 05:39:00,47.8,46.8,30.03,East,90,0.0,0.0,96,0.00,,---,0.00,VWS V14.01,2013-03-15 12:39:00,
2013-03-15 05:44:00,47.8,46.8,30.03,East,90,0.0,0.0,96,0.00,,---,0.00,VWS V14.01,2013-03-15 12:44:00,
2013-03-15 05:49:00,47.8,46.8,30.03,East,90,0.0,0.0,96,0.00,,---,0.00,VWS V14.01,2013-03-15 12:49:00,
2013-03-15 05:54:00,47.7,46.6,30.03,East,90,0.0,0.0,96,0.00,,---,0.00,VWS V14.01,2013-03-15 12:54:00,
2013-03-15 05:59:00,47.7,46.3,30.03,East,90,0.0,0.0,95,0.00,,---,0.00,VWS V14.01,2013-03-15 12:59:00,
2013-03-15 06:04:00,47.7,46.3,30.03,East,90,0.0,0.0,95,0.00,,---,0.00,VWS V14.01,2013-03-15 13:04:00,
2013-03-15 06:09:00,47.7,47.1,30.03,East,90,0.0,0.0,98,0.00,,---,0.00,VWS V14.01,2013-03-15 13:09:00,
2013-03-15 06:14:00,47.3,46.5,30.03,East,90,0.0,0.0,97,0.00,,---,0.00,VWS V14.01,2013-03-15 13:14:00,
2013-03-15 06:19:00,47.3,46.5,30.03,East,90,0.0,0.0,97,0.00,,---,0.00,VWS V14.01,2013-03-15 13:19:00,
2013-03-15 06:24:00,47.3,46.5,30.03,East,90,0.0,0.0,97,0.00,,---,0.00,VWS V14.01,2013-03-15 13:24:00,
2013-03-15 06:29:00,47.7,46.8,30.03,East,90,0.0,0.0,97,0.00,,---,0.00,VWS V14.01,2013-03-15 13:29:00,
2013-03-15 06:34:00,47.7,47.1,30.03,East,90,0.0,0.0,98,0.00,,---,0.00,VWS V14.01,2013-03-15 13:34:00,
2013-03-15 06:39:00,47.7,47.1,30.03,West,270,0.0,0.0,98,0.00,,---,0.00,VWS V14.01,2013-03-15 13:39:00,
2013-03-15 06:44:00,47.8,47.3,30.03,West,270,0.0,0.0,98,0.00,,---,0.00,VWS V14.01,2013-03-15 13:44:00,
2013-03-15 06:49:00,47.8,47.3,30.03,NNW,338,0.0,1.1,98,0.00,,---,0.00,VWS V14.01,2013-03-15 13:49:00,
2013-03-15 06:54:00,47.8,47.3,30.00,WNW,292,0.0,0.0,98,0.00,,---,0.00,VWS V14.01,2013-03-15 13:54:00,
2013-03-15 06:59:00,48.0,47.5,30.00,WNW,292,0.0,0.0,98,0.00,,---,0.00,VWS V14.01,2013-03-15 13:59:00,
2013-03-15 07:04:00,48.0,47.5,30.00,WNW,292,0.0,0.0,98,0.00,,---,0.00,VWS V14.01,2013-03-15 14:04:00,
2013-03-15 07:09:00,48.2,47.7,30.03,WNW,292,0.0,0.0,98,0.00,,---,0.00,VWS V14.01,2013-03-15 14:09:00,
2013-03-15 07:14:00,48.0,47.5,30.03,WNW,292,0.0,0.0,98,0.00,,---,0.00,VWS V14.01,2013-03-15 14:14:00,
2013-03-15 07:19:00,48.0,47.5,30.03,WNW,292,0.0,0.0,98,0.00,,---,0.00,VWS V14.01,2013-03-15 14:19:00,
2013-03-15 07:25:00,48.2,47.7,30.03,WNW,292,0.0,0.0,98,0.00,,---,0.00,VWS V14.01,2013-03-15 14:25:00,
2013-03-15 07:30:00,48.2,47.7,30.03,WNW,292,0.0,0.0,98,0.00,,---,0.00,VWS V14.01,2013-03-15 14:30:00,
2013-03-15 07:35:00,48.4,47.8,30.03,NNW,338,0.0,0.0,98,0.00,,---,0.00,VWS V14.01,2013-03-15 14:35:00,
2013-03-15 07:40:00,48.6,48.0,30.06,NNW,338,0.0,0.0,98,0.00,,---,0.00,VWS V14.01,2013-03-15 14:40:00,
2013-03-15 07:45:00,48.7,48.2,30.06,NNW,338,0.0,0.0,98,0.00,,---,0.00,VWS V14.01,2013-03-15 14:45:00,
2013-03-15 07:50:00,48.7,47.9,30.06,NNW,338,0.0,0.0,97,0.00,,---,0.00,VWS V14.01,2013-03-15 14:50:00,
2013-03-15 07:55:00,49.1,48.3,30.03,NNW,338,0.0,0.0,97,0.00,,---,0.00,VWS V14.01,2013-03-15 14:55:00,
2013-03-15 08:00:00,49.3,48.5,30.03,ENE,68,0.0,0.0,97,0.00,,---,0.00,VWS V14.01,2013-03-15 15:00:00,
2013-03-15 08:05:00,49.6,48.8,30.03,ENE,68,0.0,0.0,97,0.00,,---,0.00,VWS V14.01,2013-03-15 15:05:00,
2013-03-15 08:10:00,50.0,49.2,30.03,ENE,68,0.9,1.6,97,0.00,,---,0.00,VWS V14.01,2013-03-15 15:10:00,
2013-03-15 08:15:00,50.2,49.1,30.03,NE,45,0.0,0.0,96,0.00,,---,0.00,VWS V14.01,2013-03-15 15:15:00,
2013-03-15 08:21:00,50.4,49.3,30.03,NE,45,0.0,0.0,96,0.00,,---,0.00,VWS V14.01,2013-03-15 15:21:00,
2013-03-15 08:26:00,50.7,49.6,30.00,NE,45,0.0,0.0,96,0.00,,---,0.00,VWS V14.01,2013-03-15 15:26:00,
2013-03-15 08:31:00,51.1,49.7,30.00,NE,45,0.0,0.0,95,0.00,,---,0.00,VWS V14.01,2013-03-15 15:31:00,
2013-03-15 08:36:00,51.3,49.9,30.00,NE,45,0.0,0.0,95,0.00,,---,0.00,VWS V14.01,2013-03-15 15:36:00,
2013-03-15 08:41:00,51.6,50.2,30.03,NE,45,0.0,0.0,95,0.00,,---,0.00,VWS V14.01,2013-03-15 15:41:00,
2013-03-15 08:46:00,52.2,50.5,30.03,NE,45,0.0,0.0,94,0.00,,---,0.00,VWS V14.01,2013-03-15 15:46:00,
2013-03-15 08:51:00,52.7,51.0,30.03,NE,45,0.0,0.0,94,0.00,,---,0.00,VWS V14.01,2013-03-15 15:51:00,
2013-03-15 08:56:00,53.1,51.1,30.03,North,0,0.0,0.0,93,0.00,,---,0.00,VWS V14.01,2013-03-15 15:56:00,
2013-03-15 09:01:00,53.8,51.5,30.03,North,0,0.0,0.0,92,0.00,,---,0.00,VWS V14.01,2013-03-15 16:01:00,
2013-03-15 09:06:00,54.5,51.9,30.03,North,0,0.0,0.0,91,0.00,,---,0.00,VWS V14.01,2013-03-15 16:06:00,
2013-03-15 09:11:00,54.9,51.7,30.03,WNW,292,0.0,1.6,89,0.00,,---,0.00,VWS V14.01,2013-03-15 16:11:00,
2013-03-15 09:16:00,55.4,51.6,30.03,NNW,338,2.2,2.2,87,0.00,,---,0.00,VWS V14.01,2013-03-15 16:16:00,
2013-03-15 09:21:00,55.6,50.8,30.03,NW,315,2.0,2.0,84,0.00,,---,0.00,VWS V14.01,2013-03-15 16:21:00,
2013-03-15 09:26:00,56.3,50.5,30.03,WNW,292,2.0,2.2,81,0.00,,---,0.00,VWS V14.01,2013-03-15 16:26:00,
2013-03-15 09:31:00,56.8,51.1,30.03,NW,315,0.0,1.6,81,0.00,,---,0.00,VWS V14.01,2013-03-15 16:31:00,
2013-03-15 09:36:00,57.7,50.9,30.03,NNE,22,0.0,0.0,78,0.00,,---,0.00,VWS V14.01,2013-03-15 16:36:00,
2013-03-15 09:41:00,58.5,52.0,30.03,NNE,22,0.0,0.0,79,0.00,,---,0.00,VWS V14.01,2013-03-15 16:41:00,
2013-03-15 09:46:00,59.7,51.8,30.03,NNE,22,0.9,0.9,75,0.00,,---,0.00,VWS V14.01,2013-03-15 16:46:00,
2013-03-15 09:52:00,60.4,52.1,30.03,North,0,0.0,0.0,74,0.00,,---,0.00,VWS V14.01,2013-03-15 16:52:00,
2013-03-15 09:57:00,61.0,51.5,30.00,NW,315,2.0,2.5,71,0.00,,---,0.00,VWS V14.01,2013-03-15 16:57:00,
2013-03-15 10:02:00,61.3,51.5,30.00,ENE,68,0.0,0.0,70,0.00,,---,0.00,VWS V14.01,2013-03-15 17:02:00,
2013-03-15 10:07:00,62.4,51.3,30.00,ENE,68,0.0,0.9,67,0.00,,---,0.00,VWS V14.01,2013-03-15 17:07:00,
2013-03-15 10:12:00,62.1,49.8,30.03,NNW,338,1.6,1.6,64,0.00,,---,0.00,VWS V14.01,2013-03-15 17:12:00,
2013-03-15 10:17:00,62.2,49.9,30.03,NNE,22,2.2,2.2,64,0.00,,---,0.00,VWS V14.01,2013-03-15 17:17:00,
2013-03-15 10:22:00,63.0,50.2,30.03,NW,315,0.0,1.1,63,0.00,,---,0.00,VWS V14.01,2013-03-15 17:22:00,
2013-03-15 10:27:00,64.4,50.2,30.03,NW,315,0.0,0.0,60,0.00,,---,0.00,VWS V14.01,2013-03-15 17:27:00,
2013-03-15 10:32:00,65.8,52.0,30.03,ESE,112,0.0,0.0,61,0.00,,---,0.00,VWS V14.01,2013-03-15 17:32:00,
2013-03-15 10:38:00,66.7,52.0,30.03,WNW,292,0.0,0.0,59,0.00,,---,0.00,VWS V14.01,2013-03-15 17:38:00,
2013-03-15 10:43:00,68.2,52.4,30.03,ENE,68,2.9,2.9,57,0.00,,---,0.00,VWS V14.01,2013-03-15 17:43:00,
2013-03-15 10:48:00,68.7,51.4,30.03,NNE,22,2.0,2.0,54,0.00,,---,0.00,VWS V14.01,2013-03-15 17:48:00,
2013-03-15 10:53:00,68.5,49.2,30.03,North,0,2.7,2.7,50,0.00,,---,0.00,VWS V14.01,2013-03-15 17:53:00,
2013-03-15 10:58:00,68.7,47.7,30.03,North,0,2.5,4.3,47,0.00,,---,0.00,VWS V14.01,2013-03-15 17:58:00,
2013-03-15 11:03:00,69.4,48.9,30.03,SW,225,0.0,0.9,48,0.00,,---,0.00,VWS V14.01,2013-03-15 18:03:00,
2013-03-15 11:08:00,69.4,47.8,30.03,NNW,338,3.8,3.8,46,0.00,,---,0.00,VWS V14.01,2013-03-15 18:08:00,
2013-03-15 11:13:00,68.9,46.1,30.00,NNW,338,4.0,4.0,44,0.00,,---,0.00,VWS V14.01,2013-03-15 18:13:00,
2013-03-15 11:18:00,69.3,46.4,30.00,West,270,4.0,4.3,44,0.00,,---,0.00,VWS V14.01,2013-03-15 18:18:00,
2013-03-15 11:23:00,70.3,46.8,30.00,North,0,3.4,5.4,43,0.00,,---,0.00,VWS V14.01,2013-03-15 18:23:00,
2013-03-15 11:28:00,71.6,47.9,30.00,NW,315,3.4,3.4,43,0.00,,---,0.00,VWS V14.01,2013-03-15 18:28:00,
2013-03-15 11:34:00,71.8,46.8,30.00,West,270,2.5,3.6,41,0.00,,---,0.00,VWS V14.01,2013-03-15 18:34:00,
2013-03-15 11:39:00,71.8,47.5,30.00,WNW,292,2.7,2.7,42,0.00,,---,0.00,VWS V14.01,2013-03-15 18:39:00,
2013-03-15 11:44:00,71.8,47.5,30.00,WNW,292,3.6,3.6,42,0.00,,---,0.00,VWS V14.01,2013-03-15 18:44:00,
2013-03-15 11:49:00,72.5,48.1,30.00,WNW,292,4.3,4.3,42,0.00,,---,0.00,VWS V14.01,2013-03-15 18:49:00,
2013-03-15 11:54:00,71.6,46.0,29.97,WNW,292,4.0,4.0,40,0.00,,---,0.00,VWS V14.01,2013-03-15 18:54:00,
2013-03-15 11:59:00,72.7,47.7,29.97,NNW,338,3.1,3.1,41,0.00,,---,0.00,VWS V14.01,2013-03-15 18:59:00,
2013-03-15 12:04:00,73.4,48.9,29.97,NNE,22,6.0,6.0,42,0.00,,---,0.00,VWS V14.01,2013-03-15 19:04:00,
2013-03-15 12:09:00,73.6,47.1,29.97,WNW,292,1.3,3.1,39,0.00,,---,0.00,VWS V14.01,2013-03-15 19:09:00,
2013-03-15 12:14:00,74.1,47.6,29.97,NNW,338,3.4,3.4,39,0.00,,---,0.00,VWS V14.01,2013-03-15 19:14:00,
2013-03-15 12:19:00,74.1,47.6,29.97,East,90,2.5,2.9,39,0.00,,---,0.00,VWS V14.01,2013-03-15 19:19:00,
2013-03-15 12:24:00,74.8,47.6,29.97,NNW,338,3.1,4.3,38,0.00,,---,0.00,VWS V14.01,2013-03-15 19:24:00,
2013-03-15 12:30:00,73.9,44.6,29.97,NNW,338,3.6,4.0,35,0.00,,---,0.00,VWS V14.01,2013-03-15 19:30:00,
2013-03-15 12:35:00,74.7,46.0,29.97,NNW,338,2.9,2.9,36,0.00,,---,0.00,VWS V14.01,2013-03-15 19:35:00,
2013-03-15 12:40:00,74.8,46.1,29.97,West,270,3.6,3.6,36,0.00,,---,0.00,VWS V14.01,2013-03-15 19:40:00,
2013-03-15 12:45:00,75.6,46.8,29.97,NW,315,2.0,2.7,36,0.00,,---,0.00,VWS V14.01,2013-03-15 19:45:00,
2013-03-15 12:50:00,76.5,46.8,29.97,NW,315,2.5,2.7,35,0.00,,---,0.00,VWS V14.01,2013-03-15 19:50:00,
2013-03-15 12:55:00,76.1,45.7,29.97,WNW,292,3.1,3.4,34,0.00,,---,0.00,VWS V14.01,2013-03-15 19:55:00,
2013-03-15 13:00:00,76.3,45.9,29.97,NNE,22,4.9,5.6,34,0.00,,---,0.00,VWS V14.01,2013-03-15 20:00:00,
2013-03-15 13:05:00,77.9,48.1,29.97,NNE,22,1.1,1.3,35,0.00,,---,0.00,VWS V14.01,2013-03-15 20:05:00,
2013-03-15 13:10:00,78.1,46.7,29.94,ENE,68,2.5,2.7,33,0.00,,---,0.00,VWS V14.01,2013-03-15 20:10:00,
2013-03-15 13:15:00,76.3,45.1,29.94,NW,315,4.0,4.3,33,0.00,,---,0.00,VWS V14.01,2013-03-15 20:15:00,
2013-03-15 13:20:00,77.0,46.5,29.94,NW,315,0.0,2.5,34,0.00,,---,0.00,VWS V14.01,2013-03-15 20:20:00,
2013-03-15 13:25:00,77.4,46.8,29.94,West,270,0.0,3.8,34,0.00,,---,0.00,VWS V14.01,2013-03-15 20:25:00,
2013-03-15 13:30:00,78.3,46.8,29.94,WNW,292,3.8,3.8,33,0.00,,---,0.00,VWS V14.01,2013-03-15 20:30:00,
2013-03-15 13:35:00,77.7,46.3,29.94,NW,315,3.6,3.6,33,0.00,,---,0.00,VWS V14.01,2013-03-15 20:35:00,
2013-03-15 13:40:00,78.6,46.3,29.94,North,0,4.0,4.7,32,0.00,,---,0.00,VWS V14.01,2013-03-15 20:40:00,
2013-03-15 13:45:00,79.5,47.1,29.94,NW,315,0.0,1.1,32,0.00,,---,0.00,VWS V14.01,2013-03-15 20:45:00,
2013-03-15 13:50:00,77.5,46.2,29.94,WNW,292,2.9,3.6,33,0.00,,---,0.00,VWS V14.01,2013-03-15 20:50:00,
2013-03-15 13:55:00,79.2,47.6,29.91,NNW,338,1.6,3.4,33,0.00,,---,0.00,VWS V14.01,2013-03-15 20:55:00,
2013-03-15 14:01:00,78.4,47.0,29.91,NNW,338,1.1,2.9,33,0.00,,---,0.00,VWS V14.01,2013-03-15 21:01:00,
2013-03-15 14:06:00,79.0,46.6,29.91,NW,315,3.1,3.8,32,0.00,,---,0.00,VWS V14.01,2013-03-15 21:06:00,
2013-03-15 14:11:00,78.4,47.0,29.91,SW,225,3.4,3.4,33,0.00,,---,0.00,VWS V14.01,2013-03-15 21:11:00,
2013-03-15 14:16:00,79.3,47.0,29.91,NNW,338,4.3,4.3,32,0.00,,---,0.00,VWS V14.01,2013-03-15 21:16:00,
2013-03-15 14:21:00,79.0,46.6,29.91,SSW,202,1.1,2.7,32,0.00,,---,0.00,VWS V14.01,2013-03-15 21:21:00,
2013-03-15 14:26:00,80.2,47.7,29.88,West,270,2.9,3.6,32,0.00,,---,0.00,VWS V14.01,2013-03-15 21:26:00,
2013-03-15 14:31:00,81.0,47.5,29.88,NNW,338,2.7,3.8,31,0.00,,---,0.00,VWS V14.01,2013-03-15 21:31:00,
2013-03-15 14:37:00,79.3,46.1,29.88,NW,315,3.6,6.3,31,0.00,,---,0.00,VWS V14.01,2013-03-15 21:37:00,
2013-03-15 14:42:00,79.0,46.6,29.88,WNW,292,2.9,2.9,32,0.00,,---,0.00,VWS V14.01,2013-03-15 21:42:00,
2013-03-15 14:47:00,79.2,46.8,29.88,WSW,248,2.9,4.0,32,0.00,,---,0.00,VWS V14.01,2013-03-15 21:47:00,
2013-03-15 14:52:00,78.4,46.2,29.88,West,270,2.5,2.5,32,0.00,,---,0.00,VWS V14.01,2013-03-15 21:52:00,
2013-03-15 14:57:00,79.0,45.8,29.94,NW,315,4.9,4.9,31,0.00,,---,0.00,VWS V14.01,2013-03-15 21:57:00,
2013-03-15 15:02:00,79.5,45.4,29.94,WNW,292,2.9,3.4,30,0.00,,---,0.00,VWS V14.01,2013-03-15 22:02:00,
2013-03-15 15:07:00,79.9,45.7,29.94,NE,45,2.5,3.1,30,0.00,,---,0.00,VWS V14.01,2013-03-15 22:07:00,
2013-03-15 15:12:00,81.0,46.6,29.91,NNW,338,2.2,3.4,30,0.00,,---,0.00,VWS V14.01,2013-03-15 22:12:00,
2013-03-15 15:18:00,79.5,42.6,29.91,NNW,338,5.6,5.6,27,0.00,,---,0.00,VWS V14.01,2013-03-15 22:18:00,
2013-03-15 15:23:00,79.5,42.6,29.91,WNW,292,2.5,2.5,27,0.00,,---,0.00,VWS V14.01,2013-03-15 22:23:00,
2013-03-15 15:28:00,79.2,43.3,29.91,WNW,292,2.7,2.9,28,0.00,,---,0.00,VWS V14.01,2013-03-15 22:28:00,
2013-03-15 15:33:00,78.8,43.0,29.91,WNW,292,1.6,2.7,28,0.00,,---,0.00,VWS V14.01,2013-03-15 22:33:00,
2013-03-15 15:38:00,79.0,42.2,29.91,NNW,338,0.9,2.2,27,0.00,,---,0.00,VWS V14.01,2013-03-15 22:38:00,
2013-03-15 15:43:00,79.7,42.8,29.91,WSW,248,3.4,5.8,27,0.00,,---,0.00,VWS V14.01,2013-03-15 22:43:00,
2013-03-15 15:48:00,79.9,41.0,29.91,NNW,338,3.8,3.8,25,0.00,,---,0.00,VWS V14.01,2013-03-15 22:48:00,
2013-03-15 15:53:00,79.5,39.6,29.91,WNW,292,2.7,4.7,24,0.00,,---,0.00,VWS V14.01,2013-03-15 22:53:00,
2013-03-15 15:58:00,79.9,41.0,29.91,North,0,4.0,4.0,25,0.00,,---,0.00,VWS V14.01,2013-03-15 22:58:00,
2013-03-15 16:03:00,80.1,41.1,29.91,NW,315,2.7,3.6,25,0.00,,---,0.00,VWS V14.01,2013-03-15 23:03:00,
2013-03-15 16:08:00,79.5,41.7,29.91,NNE,22,2.2,2.9,26,0.00,,---,0.00,VWS V14.01,2013-03-15 23:08:00,
2013-03-15 16:13:00,79.0,39.2,29.91,NW,315,3.8,3.8,24,0.00,,---,0.00,VWS V14.01,2013-03-15 23:13:00,
2013-03-15 16:18:00,79.3,38.4,29.91,WNW,292,4.5,4.5,23,0.00,,---,0.00,VWS V14.01,2013-03-15 23:18:00,
2013-03-15 16:23:00,79.5,38.5,29.91,WNW,292,4.3,4.5,23,0.00,,---,0.00,VWS V14.01,2013-03-15 23:23:00,
2013-03-15 16:28:00,79.2,38.2,29.91,NNW,338,2.7,2.9,23,0.00,,---,0.00,VWS V14.01,2013-03-15 23:28:00,
2013-03-15 16:33:00,79.2,38.2,29.91,NNW,338,2.7,4.9,23,0.00,,---,0.00,VWS V14.01,2013-03-15 23:33:00,
2013-03-15 16:38:00,78.8,37.9,29.91,NNE,22,4.7,6.5,23,0.00,,---,0.00,VWS V14.01,2013-03-15 23:38:00,
2013-03-15 16:43:00,79.2,37.1,29.88,NNW,338,2.2,3.1,22,0.00,,---,0.00,VWS V14.01,2013-03-15 23:43:00,
2013-03-15 16:48:00,79.7,37.5,29.88,NNW,338,2.9,2.9,22,0.00,,---,0.00,VWS V14.01,2013-03-15 23:48:00,
2013-03-15 16:53:00,78.8,35.6,29.88,West,270,2.9,3.8,21,0.00,,---,0.00,VWS V14.01,2013-03-15 23:53:00,
2013-03-15 16:58:00,78.8,36.8,29.91,NW,315,2.0,3.6,22,0.00,,---,0.00,VWS V14.01,2013-03-15 23:58:00,
2013-03-15 17:03:00,78.3,36.3,29.91,NNW,338,2.7,4.0,22,0.00,,---,0.00,VWS V14.01,2013-03-16 00:03:00,
2013-03-15 17:08:00,79.2,35.9,29.91,WNW,292,3.1,5.4,21,0.00,,---,0.00,VWS V14.01,2013-03-16 00:08:00,
2013-03-15 17:13:00,79.0,35.8,29.91,NNW,338,2.5,4.0,21,0.00,,---,0.00,VWS V14.01,2013-03-16 00:13:00,
2013-03-15 17:18:00,79.7,36.3,29.91,North,0,2.9,2.9,21,0.00,,---,0.00,VWS V14.01,2013-03-16 00:18:00,
2013-03-15 17:23:00,79.5,37.4,29.91,NNE,22,3.1,3.1,22,0.00,,---,0.00,VWS V14.01,2013-03-16 00:23:00,
2013-03-15 17:28:00,78.1,36.2,29.91,NNW,338,0.0,1.1,22,0.00,,---,0.00,VWS V14.01,2013-03-16 00:28:00,
2013-03-15 17:33:00,77.9,37.2,29.91,North,0,0.0,0.0,23,0.00,,---,0.00,VWS V14.01,2013-03-16 00:33:00,
2013-03-15 17:38:00,78.3,37.5,29.91,NNW,338,1.3,2.5,23,0.00,,---,0.00,VWS V14.01,2013-03-16 00:38:00,
2013-03-15 17:43:00,78.4,37.6,29.91,NNE,22,0.0,0.0,23,0.00,,---,0.00,VWS V14.01,2013-03-16 00:43:00,
2013-03-15 17:48:00,77.5,35.7,29.91,North,0,3.8,3.8,22,0.00,,---,0.00,VWS V14.01,2013-03-16 00:48:00,
2013-03-15 17:53:00,77.0,35.3,29.91,NNW,338,0.9,0.9,22,0.00,,---,0.00,VWS V14.01,2013-03-16 00:53:00,
2013-03-15 17:59:00,76.3,36.9,29.91,NNW,338,0.0,0.0,24,0.00,,---,0.00,VWS V14.01,2013-03-16 00:59:00,
2013-03-15 18:04:00,75.9,35.5,29.91,NNE,22,0.0,0.0,23,0.00,,---,0.00,VWS V14.01,2013-03-16 01:04:00,
2013-03-15 18:09:00,75.6,37.3,29.91,NNE,22,0.0,0.0,25,0.00,,---,0.00,VWS V14.01,2013-03-16 01:09:00,
2013-03-15 18:14:00,74.8,36.7,29.91,NNE,22,0.0,0.0,25,0.00,,---,0.00,VWS V14.01,2013-03-16 01:14:00,
2013-03-15 18:19:00,73.9,37.9,29.91,NNE,22,0.0,0.0,27,0.00,,---,0.00,VWS V14.01,2013-03-16 01:19:00,
2013-03-15 18:24:00,73.2,38.2,29.91,NNW,338,0.0,0.0,28,0.00,,---,0.00,VWS V14.01,2013-03-16 01:24:00,
2013-03-15 18:29:00,72.7,40.3,29.91,NNW,338,0.0,0.0,31,0.00,,---,0.00,VWS V14.01,2013-03-16 01:29:00,
2013-03-15 18:34:00,72.1,39.9,29.91,NNW,338,0.0,0.0,31,0.00,,---,0.00,VWS V14.01,2013-03-16 01:34:00,
2013-03-15 18:39:00,71.2,39.9,29.91,NNW,338,0.0,0.0,32,0.00,,---,0.00,VWS V14.01,2013-03-16 01:39:00,
2013-03-15 18:44:00,70.7,39.4,29.91,NNW,338,0.0,0.0,32,0.00,,---,0.00,VWS V14.01,2013-03-16 01:44:00,
2013-03-15 18:49:00,70.2,39.7,29.91,NNW,338,0.0,0.0,33,0.00,,---,0.00,VWS V14.01,2013-03-16 01:49:00,
2013-03-15 18:54:00,69.4,39.9,29.91,NNW,338,0.0,0.0,34,0.00,,---,0.00,VWS V14.01,2013-03-16 01:54:00,
2013-03-15 18:59:00,68.9,40.2,29.91,NNW,338,0.0,0.0,35,0.00,,---,0.00,VWS V14.01,2013-03-16 01:59:00,
2013-03-15 19:04:00,68.5,39.8,29.91,NNW,338,0.0,0.0,35,0.00,,---,0.00,VWS V14.01,2013-03-16 02:04:00,
2013-03-15 19:09:00,68.0,39.3,29.91,NNW,338,0.0,0.0,35,0.00,,---,0.00,VWS V14.01,2013-03-16 02:09:00,
2013-03-15 19:14:00,67.5,40.3,29.91,NNW,338,0.0,0.0,37,0.00,,---,0.00,VWS V14.01,2013-03-16 02:14:00,
2013-03-15 19:19:00,67.3,41.5,29.91,SSW,202,2.0,2.0,39,0.00,,---,0.00,VWS V14.01,2013-03-16 02:19:00,
2013-03-15 19:24:00,67.1,41.3,29.91,SSW,202,0.0,0.0,39,0.00,,---,0.00,VWS V14.01,2013-03-16 02:24:00,
2013-03-15 19:30:00,67.1,43.3,29.91,WNW,292,1.1,2.2,42,0.00,,---,0.00,VWS V14.01,2013-03-16 02:30:00,
2013-03-15 19:35:00,66.7,42.3,29.91,WNW,292,0.0,0.0,41,0.00,,---,0.00,VWS V14.01,2013-03-16 02:35:00,
2013-03-15 19:40:00,66.7,43.5,29.91,WSW,248,1.3,1.6,43,0.00,,---,0.00,VWS V14.01,2013-03-16 02:40:00,
2013-03-15 19:45:00,66.6,43.4,29.91,WSW,248,0.9,2.5,43,0.00,,---,0.00,VWS V14.01,2013-03-16 02:45:00,
2013-03-15 19:50:00,66.6,44.0,29.91,South,180,0.0,2.0,44,0.00,,---,0.00,VWS V14.01,2013-03-16 02:50:00,
2013-03-15 19:55:00,66.6,44.0,29.91,SW,225,0.0,0.9,44,0.00,,---,0.00,VWS V14.01,2013-03-16 02:55:00,
2013-03-15 20:00:00,66.4,44.4,29.91,SSE,158,1.6,1.6,45,0.00,,---,0.00,VWS V14.01,2013-03-16 03:00:00,
2013-03-15 20:05:00,66.2,44.2,29.91,West,270,0.0,0.0,45,0.00,,---,0.00,VWS V14.01,2013-03-16 03:05:00,
2013-03-15 20:10:00,65.8,44.5,29.91,South,180,0.0,2.2,46,0.00,,---,0.00,VWS V14.01,2013-03-16 03:10:00,
2013-03-15 20:15:00,65.5,44.2,29.91,SSW,202,0.0,0.0,46,0.00,,---,0.00,VWS V14.01,2013-03-16 03:15:00,
2013-03-15 20:21:00,65.1,45.0,29.91,WSW,248,2.9,2.9,48,0.00,,---,0.00,VWS V14.01,2013-03-16 03:21:00,
2013-03-15 20:26:00,64.6,43.9,29.91,SW,225,0.0,0.0,47,0.00,,---,0.00,VWS V14.01,2013-03-16 03:26:00,
2013-03-15 20:31:00,64.0,44.0,29.91,NNW,338,0.0,0.0,48,0.00,,---,0.00,VWS V14.01,2013-03-16 03:31:00,
2013-03-15 20:37:00,63.7,45.2,29.91,NNW,338,0.0,0.0,51,0.00,,---,0.00,VWS V14.01,2013-03-16 03:37:00,
2013-03-15 20:42:00,63.1,43.7,29.91,South,180,0.0,0.0,49,0.00,,---,0.00,VWS V14.01,2013-03-16 03:42:00,
2013-03-15 20:47:00,63.0,44.0,29.91,SSW,202,0.0,0.0,50,0.00,,---,0.00,VWS V14.01,2013-03-16 03:47:00,
2013-03-15 20:52:00,62.6,43.2,29.91,South,180,0.0,0.0,49,0.00,,---,0.00,VWS V14.01,2013-03-16 03:52:00,
2013-03-15 20:57:00,61.9,43.6,29.91,WSW,248,0.0,0.0,51,0.00,,---,0.00,VWS V14.01,2013-03-16 03:57:00,
2013-03-15 21:00:00,61.9,43.6,29.91,WSW,248,0.0,0.0,51,0.00,,---,0.00,VWS V14.01,2013-03-16 04:00:00,
2013-03-15 21:05:00,61.0,43.2,29.91,WSW,248,0.0,0.0,52,0.00,,---,0.00,VWS V14.01,2013-03-16 04:05:00,
2013-03-15 21:10:00,60.4,44.2,29.91,WSW,248,0.0,0.0,55,0.00,,---,0.00,VWS V14.01,2013-03-16 04:10:00,
2013-03-15 21:15:00,60.1,44.8,29.91,WSW,248,0.0,0.0,57,0.00,,---,0.00,VWS V14.01,2013-03-16 04:15:00,
2013-03-15 21:20:00,59.7,44.5,29.91,ENE,68,0.0,0.0,57,0.00,,---,0.00,VWS V14.01,2013-03-16 04:20:00,
2013-03-15 21:26:00,59.4,46.8,29.94,South,180,0.0,0.0,63,0.00,,---,0.00,VWS V14.01,2013-03-16 04:26:00,
2013-03-15 21:31:00,59.0,45.2,29.94,South,180,0.0,0.0,60,0.00,,---,0.00,VWS V14.01,2013-03-16 04:31:00,
2013-03-15 21:36:00,58.5,44.6,29.94,South,180,0.0,0.0,60,0.00,,---,0.00,VWS V14.01,2013-03-16 04:36:00,
2013-03-15 21:41:00,58.3,44.9,29.94,South,180,0.0,0.0,61,0.00,,---,0.00,VWS V14.01,2013-03-16 04:41:00,
2013-03-15 21:47:00,57.9,44.6,29.94,South,180,0.0,0.0,61,0.00,,---,0.00,VWS V14.01,2013-03-16 04:47:00,
2013-03-15 21:52:00,57.6,45.1,29.94,South,180,0.0,0.0,63,0.00,,---,0.00,VWS V14.01,2013-03-16 04:52:00,
2013-03-15 21:57:00,57.4,45.3,29.94,South,180,0.0,0.0,64,0.00,,---,0.00,VWS V14.01,2013-03-16 04:57:00,
2013-03-15 22:02:00,56.8,44.4,29.94,South,180,0.0,0.0,63,0.00,,---,0.00,VWS V14.01,2013-03-16 05:02:00,
2013-03-15 22:07:00,56.8,46.0,29.94,South,180,0.0,0.0,67,0.00,,---,0.00,VWS V14.01,2013-03-16 05:07:00,
2013-03-15 22:12:00,56.5,45.3,29.94,South,180,0.0,0.0,66,0.00,,---,0.00,VWS V14.01,2013-03-16 05:12:00,
2013-03-15 22:17:00,56.5,45.3,29.94,South,180,0.0,0.0,66,0.00,,---,0.00,VWS V14.01,2013-03-16 05:17:00,
2013-03-15 22:23:00,56.5,46.1,29.94,NNE,22,0.0,0.0,68,0.00,,---,0.00,VWS V14.01,2013-03-16 05:23:00,
2013-03-15 22:28:00,56.1,46.1,29.94,North,0,0.0,0.0,69,0.00,,---,0.00,VWS V14.01,2013-03-16 05:28:00,
2013-03-15 22:33:00,55.9,45.2,29.94,North,0,0.0,0.0,67,0.00,,---,0.00,VWS V14.01,2013-03-16 05:33:00,
2013-03-15 22:38:00,55.9,45.2,29.94,SE,135,0.0,0.0,67,0.00,,---,0.00,VWS V14.01,2013-03-16 05:38:00,
2013-03-15 22:43:00,55.6,45.6,29.97,NNE,22,0.0,0.0,69,0.00,,---,0.00,VWS V14.01,2013-03-16 05:43:00,
2013-03-15 22:48:00,56.5,47.9,29.97,East,90,0.0,0.0,73,0.00,,---,0.00,VWS V14.01,2013-03-16 05:48:00,
2013-03-15 22:53:00,55.4,45.8,29.97,SE,135,0.0,0.0,70,0.00,,---,0.00,VWS V14.01,2013-03-16 05:53:00,
2013-03-15 22:58:00,55.0,45.5,29.97,SE,135,0.0,0.0,70,0.00,,---,0.00,VWS V14.01,2013-03-16 05:58:00,
2013-03-15 23:03:00,55.2,47.1,29.97,NNE,22,0.0,0.0,74,0.00,,---,0.00,VWS V14.01,2013-03-16 06:03:00,
2013-03-15 23:08:00,54.7,45.8,29.97,NNE,22,0.0,0.0,72,0.00,,---,0.00,VWS V14.01,2013-03-16 06:08:00,
2013-03-15 23:13:00,54.5,45.7,29.97,SSE,158,0.0,0.0,72,0.00,,---,0.00,VWS V14.01,2013-03-16 06:13:00,
2013-03-15 23:18:00,54.1,45.7,29.97,SSE,158,0.0,0.0,73,0.00,,---,0.00,VWS V14.01,2013-03-16 06:18:00,
2013-03-15 23:23:00,54.0,45.2,29.97,SSE,158,0.0,0.0,72,0.00,,---,0.00,VWS V14.01,2013-03-16 06:23:00,
2013-03-15 23:29:00,53.8,45.7,29.97,SSE,158,0.0,0.0,74,0.00,,---,0.00,VWS V14.01,2013-03-16 06:29:00,
2013-03-15 23:34:00,53.4,45.3,29.97,SSE,158,0.0,0.0,74,0.00,,---,0.00,VWS V14.01,2013-03-16 06:34:00,
2013-03-15 23:39:00,53.2,45.5,29.97,SSE,158,0.0,0.0,75,0.00,,---,0.00,VWS V14.01,2013-03-16 06:39:00,
2013-03-15 23:44:00,53.2,45.5,29.97,SSE,158,0.0,0.0,75,0.00,,---,0.00,VWS V14.01,2013-03-16 06:44:00,
2013-03-15 23:49:00,52.9,45.2,29.97,SSE,158,0.0,0.0,75,0.00,,---,0.00,VWS V14.01,2013-03-16 06:49:00,
2013-03-15 23:54:00,52.9,46.2,29.94,SSE,158,0.0,0.0,78,0.00,,---,0.00,VWS V14.01,2013-03-16 06:54:00,
2013-03-15 23:59:00,52.9,46.2,29.94,NNE,22,0.0,0.0,78,0.00,,---,0.00,VWS V14.01,2013-03-16 06:59:00,